When you browse on this site, cookies collect data to enhance your experience and personalize the content and advertising you see.
Visit our Privacy Policy to learn more. By continuing to use the site, you agree to this use of cookies and data.

Stündliche Wetter Tukupita

Heute, 11 Juli, Samstag

Zeit Temperatur Niederschläge Wind Luftdruck Luftfeuchtigkeit
00:00 +25°C° 0.3 mm 1 m/S 759 mmHg 97%
01:00 +25°C° 0.3 mm 1 m/S 758 mmHg 97%
02:00 +25°C° 0.3 mm 1 m/S 758 mmHg 97%
03:00 +25°C° 1.7 mm 1 m/S 758 mmHg 98%
04:00 +25°C° 1.7 mm 1 m/S 758 mmHg 98%
05:00 +25°C° 1.7 mm 1 m/S 758 mmHg 98%
06:00 +23°C° 2.3 mm 0 m/S 758 mmHg 98%
07:00 +23°C° 2.3 mm 0 m/S 758 mmHg 98%
08:00 +23°C° 2.3 mm 0 m/S 759 mmHg 97%
09:00 +24°C° 0.7 mm 0 m/S 759 mmHg 96%
10:00 +24°C° 0.7 mm 0 m/S 759 mmHg 94%
11:00 +25°C° 0.7 mm 0 m/S 759 mmHg 93%
12:00 +27°C° 0.4 mm 1 m/S 758 mmHg 92%
13:00 +27°C° 0.4 mm 1 m/S 758 mmHg 91%
14:00 +27°C° 0.4 mm 2 m/S 757 mmHg 90%
15:00 +27°C° 0.1 mm 2 m/S 757 mmHg 90%
16:00 +27°C° 0.1 mm 2 m/S 757 mmHg 90%
17:00 +27°C° 0.1 mm 1 m/S 756 mmHg 90%
18:00 +27°C° 0 mm 1 m/S 757 mmHg 92%
19:00 +26°C° 0 mm 1 m/S 757 mmHg 95%
20:00 +25°C° 0 mm 1 m/S 758 mmHg 97%
21:00 +25°C° 0 mm 1 m/S 758 mmHg 98%
22:00 +25°C° 0 mm 1 m/S 758 mmHg 98%
23:00 +25°C° 0 mm 1 m/S 759 mmHg 98%

Morgen, 12 Juli, Sonntag

Zeit Temperatur Niederschläge Wind Luftdruck Luftfeuchtigkeit
00:00 +25°C° 0 mm 1 m/S 758 mmHg 98%
01:00 +25°C° 0 mm 1 m/S 758 mmHg 98%
02:00 +23°C° 0 mm 0 m/S 758 mmHg 98%
03:00 +22°C° 0 mm 0 m/S 758 mmHg 98%
04:00 +22°C° 0 mm 0 m/S 758 mmHg 98%
05:00 +22°C° 0 mm 0 m/S 758 mmHg 98%
06:00 +23°C° 0.2 mm 0 m/S 758 mmHg 96%
07:00 +25°C° 0.2 mm 0 m/S 759 mmHg 93%
08:00 +28°C° 0.2 mm 1 m/S 759 mmHg 90%
09:00 +29°C° 0.4 mm 1 m/S 759 mmHg 82%
10:00 +31°C° 0.4 mm 2 m/S 759 mmHg 74%
11:00 +32°C° 0.4 mm 2 m/S 759 mmHg 66%
12:00 +34°C° 0.3 mm 2 m/S 759 mmHg 63%
13:00 +34°C° 0.3 mm 2 m/S 758 mmHg 59%
14:00 +35°C° 0.3 mm 2 m/S 757 mmHg 56%
15:00 +34°C° 0.1 mm 2 m/S 757 mmHg 59%
16:00 +34°C° 0.1 mm 2 m/S 756 mmHg 62%
17:00 +32°C° 0.1 mm 2 m/S 756 mmHg 65%
18:00 +30°C° 0 mm 2 m/S 757 mmHg 72%
19:00 +29°C° 0 mm 2 m/S 757 mmHg 80%
20:00 +27°C° 0 mm 2 m/S 758 mmHg 87%
21:00 +26°C° 0 mm 1 m/S 758 mmHg 90%
22:00 +26°C° 0 mm 1 m/S 759 mmHg 92%
23:00 +26°C° 0 mm 1 m/S 759 mmHg 95%

übermorgen, 13 Juli, Montag

Zeit Temperatur Niederschläge Wind Luftdruck Luftfeuchtigkeit
00:00 +25°C° 0 mm 1 m/S 759 mmHg 96%
01:00 +25°C° 0 mm 1 m/S 759 mmHg 97%
02:00 +23°C° 0 mm 0 m/S 758 mmHg 99%
03:00 +23°C° 0 mm 0 m/S 758 mmHg 98%
04:00 +23°C° 0 mm 0 m/S 758 mmHg 98%
05:00 +23°C° 0 mm 0 m/S 758 mmHg 98%
06:00 +26°C° 0 mm 1 m/S 759 mmHg 95%
07:00 +27°C° 0 mm 1 m/S 759 mmHg 91%
08:00 +28°C° 0 mm 1 m/S 760 mmHg 88%
09:00 +28°C° 0.7 mm 1 m/S 760 mmHg 87%
10:00 +29°C° 0.7 mm 2 m/S 760 mmHg 85%
11:00 +30°C° 0.7 mm 2 m/S 760 mmHg 84%
12:00 +30°C° 0.6 mm 2 m/S 759 mmHg 79%
13:00 +31°C° 0.6 mm 2 m/S 758 mmHg 74%
14:00 +33°C° 0.6 mm 3 m/S 758 mmHg 69%
15:00 +31°C° 0.2 mm 2 m/S 757 mmHg 72%
16:00 +31°C° 0.2 mm 2 m/S 757 mmHg 75%
17:00 +30°C° 0.2 mm 2 m/S 757 mmHg 79%
18:00 +29°C° 0.1 mm 2 m/S 757 mmHg 84%
19:00 +28°C° 0.1 mm 1 m/S 758 mmHg 90%
20:00 +26°C° 0.1 mm 1 m/S 759 mmHg 95%
21:00 +26°C° 0 mm 1 m/S 759 mmHg 96%
22:00 +26°C° 0 mm 1 m/S 759 mmHg 97%
23:00 +26°C° 0 mm 1 m/S 760 mmHg 98%

14 Juli, Dienstag

Zeit Temperatur Niederschläge Wind Luftdruck Luftfeuchtigkeit
00:00 +26°C° 0.1 mm 1 m/S 759 mmHg 98%
01:00 +25°C° 0.1 mm 1 m/S 759 mmHg 98%
02:00 +25°C° 0.1 mm 1 m/S 758 mmHg 99%
03:00 +25°C° 0.3 mm 1 m/S 758 mmHg 99%
04:00 +25°C° 0.3 mm 1 m/S 758 mmHg 98%
05:00 +23°C° 0.3 mm 0 m/S 758 mmHg 98%
06:00 +26°C° 0.8 mm 1 m/S 758 mmHg 96%
07:00 +27°C° 0.8 mm 1 m/S 759 mmHg 94%
08:00 +27°C° 0.8 mm 1 m/S 759 mmHg 92%
09:00 +28°C° 0.7 mm 1 m/S 759 mmHg 89%
10:00 +29°C° 0.7 mm 2 m/S 760 mmHg 85%
11:00 +30°C° 0.7 mm 2 m/S 760 mmHg 82%
12:00 +30°C° 0.8 mm 2 m/S 759 mmHg 82%
13:00 +30°C° 0.8 mm 2 m/S 758 mmHg 82%
14:00 +30°C° 0.8 mm 2 m/S 758 mmHg 82%
15:00 +30°C° 0.3 mm 2 m/S 758 mmHg 83%
16:00 +29°C° 0.3 mm 2 m/S 757 mmHg 83%
17:00 +29°C° 0.3 mm 2 m/S 757 mmHg 83%
18:00 +28°C° 0 mm 1 m/S 758 mmHg 87%
19:00 +27°C° 0 mm 1 m/S 758 mmHg 91%
20:00 +26°C° 0 mm 1 m/S 759 mmHg 95%
21:00 +26°C° 0 mm 1 m/S 759 mmHg 96%
22:00 +25°C° 0 mm 1 m/S 759 mmHg 97%
23:00 +25°C° 0 mm 1 m/S 760 mmHg 98%

15 Juli, Mittwoch

Zeit Temperatur Niederschläge Wind Luftdruck Luftfeuchtigkeit
00:00 +25°C° 0 mm 1 m/S 759 mmHg 98%
01:00 +24°C° 0 mm 1 m/S 759 mmHg 98%
02:00 +24°C° 0 mm 1 m/S 758 mmHg 99%
03:00 +22°C° 0 mm 0 m/S 758 mmHg 99%
04:00 +22°C° 0 mm 0 m/S 758 mmHg 99%
05:00 +22°C° 0 mm 0 m/S 758 mmHg 99%
06:00 +25°C° 0 mm 1 m/S 759 mmHg 95%
07:00 +26°C° 0 mm 1 m/S 759 mmHg 92%
08:00 +27°C° 0 mm 1 m/S 760 mmHg 88%
09:00 +29°C° 0.1 mm 1 m/S 759 mmHg 80%
10:00 +31°C° 0.1 mm 1 m/S 759 mmHg 71%
11:00 +32°C° 0.1 mm 1 m/S 759 mmHg 62%
12:00 +34°C° 0.2 mm 2 m/S 759 mmHg 60%
13:00 +34°C° 0.2 mm 2 m/S 758 mmHg 59%
14:00 +35°C° 0.2 mm 2 m/S 757 mmHg 57%
15:00 +34°C° 0.6 mm 2 m/S 757 mmHg 65%
16:00 +32°C° 0.6 mm 1 m/S 757 mmHg 73%
17:00 +31°C° 0.6 mm 1 m/S 756 mmHg 82%
18:00 +29°C° 0.1 mm 1 m/S 757 mmHg 86%
19:00 +28°C° 0.1 mm 1 m/S 758 mmHg 90%
20:00 +26°C° 0.1 mm 1 m/S 758 mmHg 94%
21:00 +26°C° 0 mm 1 m/S 758 mmHg 95%
22:00 +25°C° 0 mm 1 m/S 759 mmHg 96%
23:00 +25°C° 0 mm 1 m/S 759 mmHg 98%

16 Juli, Donnerstag

Zeit Temperatur Niederschläge Wind Luftdruck Luftfeuchtigkeit
00:00 +25°C° 0 mm 1 m/S 759 mmHg 98%
01:00 +25°C° 0 mm 1 m/S 758 mmHg 98%
02:00 +24°C° 0 mm 1 m/S 758 mmHg 99%
03:00 +24°C° 0 mm 1 m/S 758 mmHg 99%
04:00 +24°C° 0 mm 1 m/S 758 mmHg 99%
05:00 +24°C° 0 mm 1 m/S 758 mmHg 98%
06:00 +25°C° 0 mm 1 m/S 759 mmHg 95%
07:00 +26°C° 0 mm 1 m/S 759 mmHg 91%
08:00 +28°C° 0 mm 1 m/S 760 mmHg 88%
09:00 +29°C° 0.5 mm 1 m/S 760 mmHg 84%
10:00 +30°C° 0.5 mm 2 m/S 760 mmHg 80%
11:00 +31°C° 0.5 mm 2 m/S 760 mmHg 76%
12:00 +32°C° 0.5 mm 2 m/S 759 mmHg 70%
13:00 +32°C° 0.5 mm 2 m/S 758 mmHg 65%
14:00 +34°C° 0.5 mm 2 m/S 758 mmHg 59%
15:00 +34°C° 0.1 mm 3 m/S 757 mmHg 61%
16:00 +33°C° 0.1 mm 3 m/S 757 mmHg 63%
17:00 +33°C° 0.1 mm 3 m/S 757 mmHg 65%
18:00 +30°C° 0 mm 2 m/S 757 mmHg 72%
19:00 +29°C° 0 mm 2 m/S 758 mmHg 78%
20:00 +27°C° 0 mm 2 m/S 758 mmHg 84%
21:00 +26°C° 0 mm 2 m/S 759 mmHg 88%
22:00 +26°C° 0 mm 1 m/S 759 mmHg 91%
23:00 +25°C° 0 mm 1 m/S 760 mmHg 95%
Mehr zeigen